Tracking 19245 objects as of 14-Aug-2018
HD Live streaming from Space Station
objects crossing your sky now

WESTFORD NEEDLES

Track WESTFORD NEEDLES now!
10-day predictions
WESTFORD NEEDLES is classified as:


NORAD ID: 5702
Int'l Code: 1963-014CU
Perigee: 2,391.9 km
Apogee: 4,846.7 km
Inclination: 87.0 °
Period: 165.6 minutes
Semi major axis: 9990 km
RCS: 0.1919 m2 (medium)
Launch date: May 9, 1963
Source: United States (US)
Launch site: AIR FORCE WESTERN TEST RANGE (AFWTR)
aabbcc
Your satellite tracking list
Your tracking list is empty




NASA's NSSDC Master Catalog

Two Line Element Set (TLE):
1  5702U 63014CU  18225.63926327 +.00000842 +00000-0 +17640+0 0  9995
2  5702 087.0456 096.3353 1228552 071.8006 301.2502 08.69431004176970
Source of the keplerian elements: AFSPC